FW4820 Weather Reports


Display with metric or nautical units.
time (UTC)temp
F
wind
direction
speed
MPH
gust
MPH
rain 1hr
in
rain 24hr
in
rain mn
in
humidity
%
barometer
mb
20260502130516 45 315 1.0 2.0 0.00 0.00 0.00 70 1023.1
20260502123516 42 315 1.0 3.0 0.00 0.00 0.00 73 1022.9
20260502122516 42 315 1.0 3.0 0.00 0.00 0.00 76 1022.9
20260502121536 40 0.0 1.0 0.00 0.00 0.00 79 1022.8
20260502120516 38 0.0 0.0 0.00 0.00 0.00 84 1022.5
20260502115516 35 0.0 0.0 0.00 0.00 0.00 88 1022.2
20260502114516 34 0.0 0.0 0.00 0.00 0.00 87 1022.2
20260502113517 34 0.0 0.0 0.00 0.00 0.00 87 1021.9
20260502112516 34 0.0 0.0 0.00 0.00 0.00 87 1021.9
20260502111536 33 0.0 0.0 0.00 0.00 0.00 87 1021.8
20260502110516 34 0.0 0.0 0.00 0.00 0.00 85 1021.7
20260502105516 34 0.0 0.0 0.00 0.00 0.00 85 1021.7
20260502104516 35 0.0 0.0 0.00 0.00 0.00 85 1021.9
20260502103536 35 0.0 0.0 0.00 0.00 0.00 85 1021.8
20260502102516 35 0.0 0.0 0.00 0.00 0.00 84 1021.7
20260502101516 35 0.0 0.0 0.00 0.00 0.00 82 1021.6
20260502100516 36 0.0 0.0 0.00 0.00 0.00 81 1021.7
20260502091515 37 0.0 0.0 0.00 0.00 0.00 80 1021.4
20260502090516 37 0.0 0.0 0.00 0.00 0.00 80 1021.5
20260502071515 44 0.0 0.0 0.00 0.00 0.00 67 1021.2
20260502070516 45 0.0 0.0 0.00 0.00 0.00 65 1021.4
20260502065515 46 0.0 0.0 0.00 0.00 0.00 63 1021.5
20260502064515 47 0 1.0 4.0 0.00 0.00 0.00 61 1021.6
20260502063516 47 0 2.0 4.0 0.00 0.00 0.00 62 1021.5
20260502062516 46 0.0 2.0 0.00 0.00 0.00 63 1021.5
20260502061515 46 0 1.0 4.0 0.00 0.00 0.00 63 1021.5
20260502060515 44 0.0 1.0 0.00 0.00 0.00 67 1021.3
20260502055516 42 0.0 0.0 0.00 0.00 0.00 69 1021.2
20260502054515 44 0.0 0.0 0.00 0.00 0.00 67 1021.2
20260502053515 46 0.0 0.0 0.00 0.00 0.00 63 1021.2
20260502052515 47 0.0 1.0 0.00 0.00 0.00 60 1021.4
20260502051515 48 0.0 1.0 0.00 0.00 0.00 60 1021.3
20260502050515 48 0.0 0.0 0.00 0.00 0.00 60 1021.3
20260502045517 49 0 1.0 3.0 0.00 0.00 0.00 59 1021.3
20260502044537 50 0.0 2.0 0.00 0.00 0.00 58 1021.1
20260502043517 51 23 3.0 7.0 0.00 0.00 0.00 56 1021.0
20260502042537 50 0 1.0 4.0 0.00 0.00 0.00 57 1020.9
20260502041537 51 0 2.0 6.0 0.00 0.00 0.00 57 1020.9
20260502040516 51 0 1.0 3.0 0.00 0.00 0.00 56 1020.9
20260502035517 52 338 1.0 3.0 0.00 0.00 0.00 56 1021.0
20260502034516 52 0 2.0 4.0 0.00 0.00 0.00 56 1020.9
20260502033516 52 23 1.0 3.0 0.00 0.00 0.00 56 1020.7
20260502032516 53 0 2.0 4.0 0.00 0.00 0.00 56 1020.5
20260502031557 52 23 2.0 7.0 0.00 0.00 0.00 58 1020.4
20260502030557 52 0 2.0 6.0 0.00 0.00 0.00 61 1020.4
20260502025516 48 0 1.0 6.0 0.00 0.00 0.00 68 1020.0
20260502024516 48 0.0 0.0 0.00 0.00 0.00 70 1019.7
20260502023516 49 0.0 0.0 0.00 0.00 0.00 69 1019.5
20260502022517 50 0.0 0.0 0.00 0.00 0.00 66 1019.2
20260502021516 50 0.0 0.0 0.00 0.00 0.00 64 1019.1
20260502020516 51 0.0 0.0 0.00 0.00 0.00 62 1018.8
20260502015516 53 0.0 0.0 0.00 0.00 0.00 60 1018.7
20260502014516 55 0.0 0.0 0.00 0.00 0.00 55 1018.7
20260502013516 56 0.0 0.0 0.00 0.00 0.00 53 1018.6
20260502012516 57 0.0 3.0 0.00 0.00 0.00 50 1018.4
20260502011536 59 0.0 1.0 0.00 0.00 0.00 48 1018.3
20260502010536 60 0.0 2.0 0.00 0.00 0.00 47 1018.2
20260502005516 60 0 1.0 4.0 0.00 0.00 0.00 45 1018.0
20260502004516 61 315 3.0 7.0 0.00 0.00 0.00 44 1018.0
20260502003516 62 23 5.0 9.0 0.00 0.00 0.00 42 1017.7
20260502002517 63 0 4.0 13.0 0.00 0.00 0.00 40 1017.6
20260502001516 64 338 2.0 4.0 0.00 0.00 0.00 40 1017.4
20260502000537 64 315 3.0 7.0 0.00 0.00 0.00 41 1017.2
20260501235536 64 338 4.0 9.0 0.00 0.00 0.00 38 1017.2
20260501234516 65 315 2.0 10.0 0.00 0.00 0.00 40 1017.1
20260501233516 65 315 4.0 12.0 0.00 0.00 0.00 37 1017.0
20260501232516 65 315 2.0 8.0 0.00 0.00 0.00 38 1017.1
20260501231516 64 315 3.0 8.0 0.00 0.00 0.00 42 1017.1
20260501230516 64 338 2.0 7.0 0.00 0.00 0.00 41 1017.1
20260501225516 65 315 4.0 11.0 0.00 0.00 0.00 38 1017.0
20260501224516 65 270 3.0 9.0 0.00 0.00 0.00 39 1017.1
20260501223516 66 248 3.0 10.0 0.00 0.00 0.00 43 1017.1
20260501222516 65 293 2.0 9.0 0.00 0.00 0.00 39 1017.1
20260501221516 64 315 3.0 7.0 0.00 0.00 0.00 41 1017.2
20260501220516 65 315 4.0 11.0 0.00 0.00 0.00 39 1017.2
20260501215516 66 338 2.0 5.0 0.00 0.00 0.00 46 1017.4
20260501214516 65 315 2.0 8.0 0.00 0.00 0.00 43 1017.4
20260501213536 65 248 4.0 13.0 0.00 0.00 0.00 44 1017.4
20260501212516 64 248 3.0 9.0 0.00 0.00 0.00 43 1017.8
20260501211516 64 0 2.0 6.0 0.00 0.00 0.00 45 1018.1
20260501210516 64 315 5.0 11.0 0.00 0.00 0.00 39 1018.0
20260501205516 64 315 3.0 8.0 0.00 0.00 0.00 45 1018.2
20260501204516 64 315 3.0 7.0 0.00 0.00 0.00 46 1018.5
20260501203516 65 225 3.0 9.0 0.00 0.00 0.00 43 1018.6
20260501202516 65 315 1.0 5.0 0.00 0.00 0.00 45 1018.6
20260501201516 65 315 3.0 8.0 0.00 0.00 0.00 42 1018.8
20260501200516 64 315 3.0 10.0 0.00 0.00 0.00 44 1018.9
20260501195516 64 248 4.0 10.0 0.00 0.00 0.00 40 1018.9
20260501194516 64 248 3.0 7.0 0.00 0.00 0.00 43 1019.1
20260501193516 64 248 2.0 7.0 0.00 0.00 0.00 42 1019.2
20260501192516 64 315 2.0 10.0 0.00 0.00 0.00 46 1019.1
20260501191516 65 248 3.0 9.0 0.00 0.00 0.00 45 1019.3
20260501190516 66 248 3.0 7.0 0.00 0.00 0.00 50 1019.4
20260501185516 64 270 3.0 9.0 0.00 0.00 0.00 45 1019.4
20260501184516 65 248 3.0 8.0 0.00 0.00 0.00 41 1019.4
20260501183516 65 315 2.0 8.0 0.00 0.00 0.00 46 1019.6
20260501182516 64 315 3.0 8.0 0.00 0.00 0.00 41 1019.5
20260501181517 64 315 3.0 6.0 0.00 0.00 0.00 42 1019.8
20260501180516 63 23 5.0 11.0 0.00 0.00 0.00 42 1019.8
20260501175516 64 23 5.0 9.0 0.00 0.00 0.00 41 1019.8
20260501174516 63 315 5.0 10.0 0.00 0.00 0.00 40 1020.0
20260501173516 63 315 4.0 9.0 0.00 0.00 0.00 39 1020.1
20260501172516 63 315 5.0 17.0 0.00 0.00 0.00 37 1020.2
20260501171516 63 315 2.0 7.0 0.00 0.00 0.00 44 1020.3
20260501170516 62 315 2.0 6.0 0.00 0.00 0.00 43 1020.4
20260501165516 63 248 4.0 12.0 0.00 0.00 0.00 40 1020.5
20260501164516 62 315 3.0 6.0 0.00 0.00 0.00 46 1020.5
20260501163516 61 248 5.0 8.0 0.00 0.00 0.00 43 1020.5
20260501162516 61 248 3.0 8.0 0.00 0.00 0.00 46 1020.4
20260501161516 60 248 2.0 8.0 0.00 0.00 0.00 47 1020.5
20260501160516 60 248 5.0 9.0 0.00 0.00 0.00 47 1020.6
20260501155516 60 248 4.0 9.0 0.00 0.00 0.00 51 1020.6
20260501154516 60 248 4.0 9.0 0.00 0.00 0.00 47 1020.6
20260501153516 60 248 2.0 5.0 0.00 0.00 0.00 48 1020.4
20260501152515 59 248 1.0 3.0 0.00 0.00 0.00 50 1020.3
20260501151516 58 248 2.0 6.0 0.00 0.00 0.00 54 1020.2
20260501150536 58 248 2.0 6.0 0.00 0.00 0.00 55 1020.4
20260501145515 57 225 3.0 10.0 0.00 0.00 0.00 61 1020.3
20260501144516 57 248 2.0 7.0 0.00 0.00 0.00 62 1020.3
20260501143516 57 225 2.0 6.0 0.00 0.00 0.00 62 1020.3
20260501142516 56 248 2.0 5.0 0.00 0.00 0.00 68 1020.3
20260501141515 56 135 1.0 3.0 0.00 0.00 0.00 66 1020.3
20260501140516 54 225 2.0 5.0 0.00 0.00 0.00 70 1020.3
20260501134516 54 158 1.0 2.0 0.00 0.00 0.00 73 1020.3
20260501133515 53 0.0 3.0 0.00 0.00 0.00 73 1020.2